Weather History for KRZN - December, 2011

Change the Weather History Date:

Sunday, December 11, 2011

  Actual Average Record
Temperature  
Mean Temperature 29 °F -  
Max Temperature 41 °F - - ()
Min Temperature 17 °F - - ()
Degree Days  
Heating Degree Days 36    
Moisture  
Dew Point 22 °F    
Average Humidity 74    
Maximum Humidity 93    
Minimum Humidity 51    
Precipitation  
Precipitation 0.02 in - - ()
Sea Level Pressure  
Sea Level Pressure 30.01 in    
Wind  
Wind Speed 8 mph (SW)    
Max Wind Speed 17 mph    
Max Gust Speed 24 mph    
Visibility 9 miles    
Events      
T = Trace of Precipitation, MM = Missing Value Source: NWS Daily Summary

Daily Weather History Graph

Daily Weather History Graph

Search for Another Location

Airport or City:

Trip Planner

Search our weather history database for the weather conditions in past years. The results will help you decide how hot, cold, wet, or windy it might be!

Date:

Astronomy

Dec. 11, 2011 Rise Set
Actual Time 7:40 AM CST 4:24 PM CST
Civil Twilight 7:06 AM CST 4:59 PM CST
Nautical Twilight 6:28 AM CST 5:36 PM CST
Astronomical Twilight 5:52 AM CST 6:12 PM CST
Moon 5:35 PM CST (12/11) 8:29 AM CST (12/11)
Length of Visible Light 9h 52m
Length of Day
8h 44m
Full, 99% of the Moon is Illuminated
Dec 11
Full
Dec 17
Last Quarter
Dec 24
New
Jan 1
First Quarter
Jan 9
Full

Hourly Weather History & Observations

Time (CST) Temp. Windchill Dew Point Humidity Pressure Visibility Wind Dir Wind Speed Gust Speed Precip Events Conditions
12:15 AM 17.8 °F 9.6 °F 16.0 °F 93% 30.06 in 7.0 mi South 5.8 mph - N/A   Clear
12:35 AM 17.4 °F 9.1 °F 15.6 °F 93% 30.06 in 7.0 mi South 5.8 mph - N/A   Clear
12:55 AM 18.7 °F 11.9 °F 16.9 °F 93% 30.05 in 7.0 mi South 4.6 mph - N/A   Clear
1:15 AM 19.4 °F 12.8 °F 17.2 °F 91% 30.04 in 7.0 mi South 4.6 mph - N/A   Clear
1:35 AM 18.9 °F 12.1 °F 16.7 °F 91% 30.03 in 7.0 mi South 4.6 mph - N/A   Clear
1:55 AM 18.0 °F 8.7 °F 16.0 °F 92% 30.04 in 7.0 mi South 6.9 mph - N/A   Clear
2:35 AM 19.4 °F 12.8 °F 17.2 °F 91% 30.04 in 7.0 mi South 4.6 mph - N/A   Clear
2:55 AM 19.4 °F 12.8 °F 17.1 °F 91% 30.03 in 7.0 mi South 4.6 mph - N/A   Clear
3:15 AM 19.6 °F 11.7 °F 17.1 °F 90% 30.03 in 7.0 mi SSW 5.8 mph - N/A   Clear
3:35 AM 20.3 °F 13.8 °F 17.4 °F 89% 30.02 in 7.0 mi SSW 4.6 mph - N/A   Clear
3:55 AM 21.4 °F 13.8 °F 18.5 °F 89% 30.01 in 10.0 mi SSW 5.8 mph - N/A   Clear
4:15 AM 22.8 °F 13.6 °F 19.2 °F 86% 30.00 in 10.0 mi SSW 8.1 mph - N/A   Clear
4:35 AM 23.4 °F 16.2 °F 19.2 °F 84% 30.00 in 10.0 mi SSW 5.8 mph - N/A   Clear
4:55 AM 21.7 °F 14.3 °F 18.7 °F 88% 30.00 in 10.0 mi SSW 5.8 mph - N/A   Clear
5:15 AM 23.2 °F 16.0 °F 19.6 °F 86% 29.99 in 10.0 mi SSW 5.8 mph - N/A   Clear
5:35 AM 24.8 °F 16.1 °F 20.3 °F 83% 29.99 in 10.0 mi SW 8.1 mph - N/A   Clear
5:55 AM 26.1 °F 18.4 °F 20.5 °F 79% 30.00 in 10.0 mi SW 6.9 mph - N/A   Clear
6:15 AM 26.2 °F 17.8 °F 20.3 °F 78% 30.00 in 10.0 mi SW 8.1 mph - N/A   Clear
6:35 AM 26.8 °F 19.3 °F 20.1 °F 76% 30.00 in 10.0 mi SW 6.9 mph - N/A   Clear
6:55 AM 27.0 °F 18.7 °F 19.9 °F 75% 30.00 in 10.0 mi SSW 8.1 mph - N/A   Clear
7:15 AM 27.3 °F 19.9 °F 19.8 °F 73% 30.00 in 10.0 mi SSW 6.9 mph - N/A   Clear
7:35 AM 27.9 °F 20.6 °F 19.8 °F 72% 30.00 in 10.0 mi SSW 6.9 mph - N/A   Clear
7:55 AM 28.0 °F 20.8 °F 19.4 °F 70% 30.00 in 10.0 mi SSW 6.9 mph - N/A   Clear
8:15 AM 28.9 °F 21.9 °F 19.4 °F 68% 30.00 in 10.0 mi SSW 6.9 mph - N/A   Clear
8:35 AM 30.4 °F 22.9 °F 19.8 °F 65% 30.00 in 10.0 mi SW 8.1 mph - N/A   Clear
8:55 AM 31.6 °F 23.7 °F 20.3 °F 63% 30.00 in 10.0 mi SW 9.2 mph - N/A   Clear
9:15 AM 32.9 °F 27.5 °F 21.0 °F 62% 30.00 in 10.0 mi SW 5.8 mph 16.1 mph N/A   Clear
9:35 AM 34.3 °F 26.5 °F 21.7 °F 60% 30.00 in 10.0 mi SW 10.4 mph - N/A   Clear
9:55 AM 35.2 °F 27.6 °F 22.3 °F 59% 30.00 in 10.0 mi SSW 10.4 mph - N/A   Clear
10:15 AM 36.1 °F 29.3 °F 22.6 °F 58% 30.01 in 10.0 mi SSW 9.2 mph - N/A   Clear
10:35 AM 36.9 °F 31.4 °F 23.0 °F 57% 30.00 in 10.0 mi SW 6.9 mph - N/A   Clear
10:55 AM 38.3 °F 31.4 °F 23.5 °F 55% 29.99 in 10.0 mi SSW 10.4 mph - N/A   Clear
11:15 AM 39.6 °F 32.5 °F 23.9 °F 54% 29.98 in 10.0 mi SSW 11.5 mph 18.4 mph N/A   Clear
11:35 AM 40.6 °F 34.3 °F 23.7 °F 51% 29.99 in 10.0 mi WSW 10.4 mph 17.3 mph 0.01 in   Clear
11:55 AM 40.8 °F 34.1 °F 23.9 °F 51% 30.00 in 10.0 mi WSW 11.5 mph - 0.02 in   Clear
12:15 PM 40.3 °F 32.2 °F 24.4 °F 53% 30.00 in 10.0 mi WSW 15.0 mph 23.0 mph N/A   Clear
12:35 PM 40.1 °F 33.2 °F 25.2 °F 55% 30.00 in 10.0 mi WSW 11.5 mph 20.7 mph N/A   Clear
12:55 PM 40.1 °F 32.7 °F 25.5 °F 56% 30.00 in 10.0 mi WSW 12.7 mph 19.6 mph N/A   Clear
1:15 PM 40.6 °F 34.3 °F 25.7 °F 55% 30.00 in 10.0 mi WSW 10.4 mph 17.3 mph N/A   Clear
1:35 PM 41.0 °F 33.5 °F 25.9 °F 55% 30.00 in 10.0 mi WSW 13.8 mph 19.6 mph N/A   Clear
1:55 PM 41.0 °F 34.7 °F 25.7 °F 55% 30.00 in 10.0 mi SSW 10.4 mph - N/A   Clear
2:15 PM 40.5 °F 32.5 °F 26.4 °F 57% 30.00 in 10.0 mi SW 15.0 mph 23.0 mph N/A   Clear
2:35 PM 39.4 °F 32.7 °F 27.1 °F 62% 30.00 in 10.0 mi SW 10.4 mph - N/A   Clear
2:55 PM 38.7 °F 31.8 °F 27.5 °F 64% 30.01 in 10.0 mi SW 10.4 mph - N/A   Clear
3:15 PM 37.2 °F 27.6 °F 27.5 °F 68% 30.02 in 10.0 mi SSW 17.3 mph 21.9 mph N/A   Clear
3:35 PM 35.4 °F 25.3 °F 27.5 °F 73% 30.03 in 10.0 mi SW 17.3 mph 20.7 mph N/A   Clear
3:55 PM 34.2 °F 24.0 °F 27.7 °F 77% 30.03 in 7.0 mi SW 16.1 mph 19.6 mph N/A   Clear
4:15 PM 32.9 °F 22.4 °F 28.2 °F 83% 30.04 in 5.0 mi SW 16.1 mph 19.6 mph N/A   Haze
4:35 PM 32.9 °F 23.7 °F 29.1 °F 86% 30.04 in 5.0 mi SW 12.7 mph 24.2 mph N/A   Overcast
4:55 PM 33.3 °F 24.6 °F 29.5 °F 86% 30.04 in 7.0 mi SW 11.5 mph 19.6 mph N/A   Overcast
5:15 PM 33.6 °F 25.0 °F 30.0 °F 87% 30.05 in 7.0 mi SW 11.5 mph 20.7 mph N/A   Overcast
5:35 PM 33.8 °F 25.8 °F 30.4 °F 87% 30.05 in 7.0 mi WSW 10.4 mph 21.9 mph N/A   Overcast
5:55 PM 34.2 °F 24.4 °F 30.6 °F 87% 30.05 in 5.0 mi SW 15.0 mph 23.0 mph N/A   Overcast
6:15 PM 34.2 °F 25.7 °F 30.7 °F 87% 30.05 in 7.0 mi SW 11.5 mph 19.6 mph N/A   Overcast
6:35 PM 34.3 °F 25.0 °F 30.9 °F 87% 30.05 in 5.0 mi SW 13.8 mph 19.6 mph N/A   Overcast
6:55 PM 34.3 °F 25.5 °F 31.1 °F 88% 30.06 in 5.0 mi SW 12.7 mph 19.6 mph N/A   Overcast
7:15 PM 34.7 °F 25.9 °F 31.1 °F 87% 30.06 in 5.0 mi SW 12.7 mph 21.9 mph N/A   Overcast
7:35 PM 34.7 °F 25.5 °F 31.1 °F 87% 30.07 in 5.0 mi SW 13.8 mph 18.4 mph N/A   Overcast
7:55 PM 34.7 °F 26.9 °F 31.1 °F 87% 30.08 in 5.0 mi SW 10.4 mph 19.6 mph N/A   Overcast
8:15 PM 34.7 °F 26.9 °F 31.5 °F 88% 30.08 in 5.0 mi SW 10.4 mph 20.7 mph N/A   Overcast
8:35 PM 34.9 °F 25.3 °F 31.3 °F 87% 30.08 in 5.0 mi WSW 15.0 mph 24.2 mph N/A   Overcast
8:55 PM 34.9 °F 25.7 °F 31.3 °F 87% 30.08 in 5.0 mi WSW 13.8 mph 19.6 mph N/A   Overcast
9:15 PM 35.2 °F 27.1 °F 31.3 °F 85% 30.08 in 7.0 mi WSW 11.5 mph 17.3 mph N/A   Overcast
9:35 PM 35.4 °F 27.3 °F 31.1 °F 84% 30.08 in 7.0 mi WSW 11.5 mph - N/A   Overcast
9:55 PM 35.8 °F 28.8 °F 30.9 °F 82% 30.09 in 7.0 mi WSW 9.2 mph - N/A   Overcast
10:15 PM 36.0 °F 30.3 °F 30.9 °F 82% 30.09 in 7.0 mi WSW 6.9 mph - N/A   Overcast
10:35 PM 36.0 °F 30.3 °F 30.9 °F 82% 30.09 in 7.0 mi WSW 6.9 mph - N/A   Overcast
10:55 PM 36.0 °F 30.3 °F 31.1 °F 82% 30.09 in 7.0 mi SW 6.9 mph - N/A   Overcast
11:15 PM 36.1 °F 31.4 °F 31.1 °F 82% 30.09 in 7.0 mi SSW 5.8 mph - N/A   Overcast
11:35 PM 36.1 °F 30.6 °F 31.3 °F 83% 30.10 in 7.0 mi SSW 6.9 mph - N/A   Overcast
11:55 PM 36.1 °F 30.6 °F 31.6 °F 84% 30.10 in 7.0 mi SSW 6.9 mph - N/A   Overcast